Marshfield, WI

3:20 AM CST on December 12, 2017 (GMT -0600)
Marshfield Municipal

Weather History for KMFI - December, 2012

Change the Weather History Date:

Wednesday, December 5, 2012

  Actual Average Record
Temperature  
Mean Temperature 22 °F -  
Max Temperature 30 °F 32 °F 62 °F (2001)
Min Temperature 15 °F 14 °F -7 °F (1991)
Degree Days  
Heating Degree Days 42    
Moisture  
Dew Point 15 °F    
Average Humidity 68    
Maximum Humidity 84    
Minimum Humidity 56    
Precipitation  
Precipitation 0.00 in - - ()
Sea Level Pressure  
Sea Level Pressure 30.35 in    
Wind  
Wind Speed 7 mph (SE)    
Max Wind Speed 17 mph    
Max Gust Speed 23 mph    
Visibility 10 miles    
Events      
Averages and records for this station are not official NWS values.
T = Trace of Precipitation, MM = Missing Value Source: NWS Daily Summary

Daily Weather History Graph

Daily Weather History Graph

Search for Another Location

Airport or City:

Trip Planner

Search our weather history database for the weather conditions in past years. The results will help you decide how hot, cold, wet, or windy it might be!

Date:

Astronomy

Dec. 05, 2012 Rise Set
Actual Time 7:22 AM CST 4:20 PM CST
Civil Twilight 6:49 AM CST 4:53 PM CST
Nautical Twilight 6:12 AM CST 5:30 PM CST
Astronomical Twilight 5:37 AM CST 6:05 PM CST
Moon 11:22 PM CST (12/5) 11:34 AM CST (12/5)
Length of Visible Light 10h 04m
Length of Day
8h 58m
Waning Gibbous, 59% of the Moon is Illuminated
Dec 5
Waning Gibbous
Dec 6
Last Quarter
Dec 13
New
Dec 19
First Quarter
Dec 28
Full

Hourly Weather History & Observations

Time (CST) Temp. Windchill Dew Point Humidity Pressure Visibility Wind Dir Wind Speed Gust Speed Precip Events Conditions
12:54 AM 18.0 °F 9.8 °F 10.9 °F 74% 30.41 in 10.0 mi NW 5.8 mph - N/A   Clear
1:54 AM 17.1 °F 10.0 °F 12.0 °F 81% 30.43 in 10.0 mi NNW 4.6 mph - N/A   Clear
2:54 AM 17.1 °F - 12.0 °F 81% 30.44 in 10.0 mi Calm Calm - N/A   Clear
3:54 AM 16.0 °F 8.8 °F 10.9 °F 81% 30.44 in 10.0 mi NNW 4.6 mph - N/A   Clear
4:54 AM 16.0 °F 8.8 °F 10.9 °F 81% 30.46 in 10.0 mi NNW 4.6 mph - N/A   Clear
5:54 AM 15.1 °F 9.4 °F 10.0 °F 80% 30.46 in 10.0 mi NNE 3.5 mph - N/A   Clear
6:54 AM 15.1 °F - 10.9 °F 84% 30.46 in 10.0 mi Calm Calm - N/A   Clear
8:54 AM 19.0 °F 12.3 °F 14.0 °F 81% 30.47 in 10.0 mi ESE 4.6 mph - N/A   Clear
9:54 AM 24.1 °F 17.0 °F 16.0 °F 71% 30.46 in 10.0 mi East 5.8 mph - N/A   Clear
10:54 AM 26.1 °F 15.0 °F 15.1 °F 63% 30.45 in 10.0 mi ESE 12.7 mph - N/A   Clear
11:54 AM 28.9 °F 19.8 °F 16.0 °F 58% 30.41 in 10.0 mi SE 10.4 mph - N/A   Clear
12:54 PM 28.9 °F 20.4 °F 15.1 °F 56% 30.39 in 10.0 mi SSE 9.2 mph - N/A   Clear
1:54 PM 28.9 °F 19.2 °F 15.1 °F 56% 30.36 in 10.0 mi SSE 11.5 mph - N/A   Clear
2:54 PM 30.0 °F 20.5 °F 16.0 °F 56% 30.33 in 10.0 mi SE 11.5 mph - N/A   Clear
3:54 PM 28.9 °F 19.2 °F 15.1 °F 56% 30.32 in 10.0 mi SE 11.5 mph - N/A   Clear
4:54 PM 28.0 °F 19.3 °F 16.0 °F 61% 30.30 in 10.0 mi SE 9.2 mph - N/A   Clear
5:54 PM 28.0 °F 18.6 °F 16.0 °F 61% 30.27 in 10.0 mi SE 10.4 mph - N/A   Mostly Cloudy
6:54 PM 28.9 °F 18.2 °F 17.1 °F 61% 30.24 in 10.0 mi SSE 13.8 mph 21.9 mph N/A   Overcast
7:54 PM 28.9 °F 18.2 °F 17.1 °F 61% 30.22 in 10.0 mi SSE 13.8 mph - N/A   Scattered Clouds
8:54 PM 28.9 °F 16.9 °F 19.0 °F 67% 30.18 in 10.0 mi SSE 17.3 mph 23.0 mph N/A   Overcast
9:54 PM 30.0 °F 20.0 °F 19.9 °F 66% 30.16 in 10.0 mi SSE 12.7 mph - N/A   Overcast
10:54 PM 30.9 °F 21.7 °F 21.0 °F 67% 30.15 in 10.0 mi SSE 11.5 mph - N/A   Overcast
11:54 PM 30.9 °F 21.2 °F 21.9 °F 69% 30.13 in 10.0 mi South 12.7 mph - N/A   Overcast